Flag for U.S.A. Weather past 2 weeks in Lafayette, Louisiana, U.S.A.

Now
65 °F

More clouds than sun.


Feels Like: 65 °F
Forecast: 53 / 69 °F
Wind: No wind

Location: Lafayette Regional Airport

Current Time: Feb 28, 2015 at 7:09:38 PM

Latest Report: Feb 28, 2015 at 5:53 PM


Visibility: 10 mi

Pressure: 30.27 "Hg

Humidity: 45%

Dew point: 43 °F

Location of LafayetteLocation

Historic Weather in Lafayette — Graph

°F

Lafayette temperature yesterday

Maximum temperature yesterday: 51 °F (at 2:53 PM)
Minimum temperature yesterday: 35 °F (at 6:53 AM)
Average temperature yesterday: 41 °F

Past Weeks' High & Low Weather Summary

 TemperatureHumidityPressure
High72 °F (Feb 22, 10:53 AM)100% (Feb 14, 5:53 AM)30.47 "Hg (Feb 14, 5:53 AM)
Low31 °F (Feb 18, 1:53 AM)28% (Feb 18, 1:53 PM)29.76 "Hg (Feb 25, 3:00 PM)
Average48 °F76%30.17 "Hg
* Reported Feb 13 5:53 PM — Feb 28 5:53 PM, Lafayette, Weather by CustomWeather, © 2015

Note: Actual official high and low records may vary slightly from our data, if they occured in-between our weather recording intervals... More about our weather records

Advertising

Lafayette weather history for previous 24 hours

 ConditionsComfort  
Time TempWeatherWind HumidityBarometerVisibility
5:53 PM
Sat, Feb 28
65 °FMore clouds than sun.No wind45%30.27 "Hg10 mi
4:53 PM66 °FPassing clouds.No wind45%30.26 "Hg10 mi
3:53 PM66 °FMore clouds than sun.7 mph43%30.26 "Hg10 mi
2:53 PM65 °FMostly cloudy.8 mph49%30.27 "Hg10 mi
1:53 PM64 °FOvercast.5 mph49%30.28 "Hg10 mi
12:53 PM62 °FScattered clouds.6 mph52%30.30 "Hg10 mi
11:53 AM59 °FSunny.9 mph49%30.33 "Hg10 mi
10:53 AM56 °FPassing clouds.7 mph49%30.37 "Hg10 mi
9:53 AM49 °FScattered clouds.8 mph52%30.37 "Hg10 mi
8:53 AM43 °FOvercast.7 mph58%30.37 "Hg10 mi
7:53 AM39 °FOvercast.6 mph65%30.38 "Hg10 mi
6:53 AM37 °FOvercast.7 mph70%30.37 "Hg10 mi
5:53 AM37 °FOvercast.7 mph70%30.37 "Hg10 mi
4:53 AM35 °FPassing clouds.9 mph75%30.35 "Hg10 mi
3:53 AM34 °FClear.10 mph79%30.34 "Hg10 mi
2:53 AM33 °FClear.13 mph82%30.37 "Hg10 mi
1:53 AM33 °FClear.8 mph82%30.40 "Hg10 mi
12:53 AM34 °FClear.8 mph82%30.41 "Hg10 mi
11:53 PM
Fri, Feb 27
35 °FClear.9 mph78%30.43 "Hg10 mi
10:53 PM36 °FClear.12 mph75%30.44 "Hg10 mi
9:53 PM38 °FClear.12 mph73%30.44 "Hg10 mi
8:53 PM40 °FClear.13 mph70%30.42 "Hg10 mi
7:53 PM43 °FClear.10 mph65%30.38 "Hg10 mi
Weather by CustomWeather, © 2015

See weather overviewHow to use our weather pages